This demonstration page uses our WeatherBlox Daily Observations layout. Learn more.

Hourly Observations for June 20, 2019

Temp ( °F °C ) Dew Point ( °F °C ) Humidity (%) Winds ( mph kmh ) Pressure ( in mb ) Visibility ( mi km ) Precip ( " mm )
12:15 am 00:15 Clear 66 19 63 17.2 89 89 S 9 15 29.65 1004 10 16.09344 0 0
12:35 am 00:35 Clear 65 18.5 63 17.1 92 92 SSE 5 7 29.65 1004 10 16.09344 0 0
12:55 am 00:55 Clear 64 17.9 63 17 95 95 S 6 9 29.65 1004 10 16.09344 0 0
1:15 am 01:15 Clear 64 17.8 63 17.1 96 96 S 9 15 29.65 1004 10 16.09344 0 0
1:35 am 01:35 Clear 64 17.8 63 17 95 95 S 8 13 29.65 1004 10 16.09344 0 0
1:55 am 01:55 Clear 64 17.6 63 17 96 96 S 9 15 29.65 1004 10 16.09344 0 0
2:15 am 02:15 Clear 64 17.5 63 17 97 97 S 10 17 29.65 1004 10 16.09344 0 0
2:35 am 02:35 Clear with Nearby Thunderstorms 64 17.7 63 17 96 96 S 10 17 29.62 1003 10 16.09344 0 0
2:55 am 02:55 Clear 64 17.8 63 17 95 95 S 9 15 29.62 1003 10 16.09344 0 0
3:15 am 03:15 Clear 64 17.6 63 17 96 96 S 8 13 29.62 1003 10 16.09344 0 0
3:35 am 03:35 Clear 64 17.5 63 17 97 97 SSE 7 11 29.62 1003 10 16.09344 0 0
3:55 am 03:55 Clear with Thunderstorms 63 17.3 63 17 98 98 SSE 8 13 29.59 1002 10 16.09344 0 0
4:15 am 04:15 Partly Cloudy 64 17.7 63 17.3 98 98 N 13 20 29.68 1005 10 16.09344 0 0
4:35 am 04:35 Partly Cloudy 65 18.5 63 17.2 92 92 S 10 17 29.65 1004 10 16.09344 0 0
4:55 am 04:55 Mostly Cloudy 64 18 63 17.1 95 95 SSE 6 9 29.68 1005 10 16.09344 0 0
5:15 am 05:15 Partly Cloudy 65 18.3 62 16.7 90 90 S 7 11 29.65 1004 10 16.09344 0 0
5:35 am 05:35 Mostly Cloudy with Thunderstorms 64 17.8 63 17 95 95 Calm 29.68 1005 10 16.09344 0 0
5:55 am 05:55 Cloudy with Light Rain 64 17.5 63 17.1 98 98 SSE 8 13 29.68 1005 10 16.09344 0 0
6:15 am 06:15 Cloudy with Light Rain 64 17.6 63 17.2 98 98 SE 10 17 29.68 1005 10 16.09344 0 0
6:35 am 06:35 Cloudy 64 17.5 63 17.1 98 98 SE 9 15 29.68 1005 10 16.09344 0 0
6:55 am 06:55 Cloudy 64 17.5 63 17.1 98 98 SE 12 19 29.68 1005 10 16.09344 0 0
7:15 am 07:15 Partly Cloudy 64 17.5 63 17 97 97 SE 13 20 29.65 1004 10 16.09344 0 0
7:35 am 07:35 Sunny 64 18 63 17.2 95 95 SE 10 17 29.65 1004 10 16.09344 0 0
7:55 am 07:55 Sunny 65 18.6 63 17.3 92 92 SSE 12 19 29.65 1004 10 16.09344 0 0
8:15 am 08:15 Sunny 67 19.5 63 17.2 87 87 SW 7 11 29.68 1005 10 16.09344 0 0
8:35 am 08:35 Sunny 70 20.9 62 16.5 76 76 S 9 15 29.62 1003 10 16.09344 0 0
8:55 am 08:55 Sunny 72 22.1 62 16.9 72 72 SSW 13 20 29.65 1004 10 16.09344 0 0
9:15 am 09:15 Sunny 73 22.5 63 17.3 73 73 SSW 17 28 29.65 1004 10 16.09344 0 0
9:35 am 09:35 Sunny 73 22.9 64 17.8 73 73 S 21 33 29.65 1004 10 16.09344 0 0
9:55 am 09:55 Sunny 73 23 65 18.1 74 74 S 20 31 29.62 1003 10 16.09344 0 0
10:15 am 10:15 Sunny 74 23.3 64 18 72 72 SSW 20 31 29.62 1003 10 16.09344 0 0
10:35 am 10:35 Sunny 75 23.7 65 18.2 71 71 SSW 18 30 29.62 1003 10 16.09344 0 0
10:55 am 10:55 Sunny 75 24 65 18.3 71 71 SSW 18 30 29.59 1002 10 16.09344 0 0
11:15 am 11:15 Sunny 76 24.7 66 18.8 70 70 SW 17 28 29.59 1002 10 16.09344 0 0
11:35 am 11:35 Sunny 76 24.6 66 18.8 70 70 SW 16 26 29.59 1002 10 16.09344 0 0
11:55 am 11:55 Sunny 77 25.2 67 19.3 70 70 SW 15 24 29.62 1003 10 16.09344 0 0
12:15 pm 12:15 Sunny 78 25.5 67 19.6 70 70 SW 13 20 29.62 1003 10 16.09344 0 0
12:35 pm 12:35 Sunny 78 25.8 67 19.4 68 68 WSW 10 17 29.62 1003 10 16.09344 0 0
12:55 pm 12:55 Sunny 80 26.6 67 19.2 64 64 WSW 13 20 29.62 1003 10 16.09344 0 0
1:15 pm 13:15 Sunny 81 27.1 65 18.4 59 59 W 12 19 29.62 1003 10 16.09344 0 0
1:35 pm 13:35 Sunny 81 27.2 65 18.4 59 59 W 12 19 29.62 1003 10 16.09344 0 0
1:55 pm 13:55 Sunny 82 27.6 65 18.3 57 57 WNW 9 15 29.62 1003 10 16.09344 0 0
2:15 pm 14:15 Sunny 82 28 64 17.6 53 53 NW 8 13 29.62 1003 10 16.09344 0 0
2:35 pm 14:35 Sunny 82 28 63 17.2 52 52 NNW 8 13 29.62 1003 10 16.09344 0 0
2:55 pm 14:55 Sunny 82 28 65 18.2 55 55 WNW 8 13 29.62 1003 10 16.09344 0 0
3:15 pm 15:15 Sunny 82 28 66 18.9 58 58 N 5 7 29.62 1003 10 16.09344 0 0
3:35 pm 15:35 Sunny 82 27.7 62 16.9 52 52 N 5 7 29.62 1003 10 16.09344 0 0
3:55 pm 15:55 Sunny 83 28.2 63 17.1 51 51 NNW 3 6 29.59 1002 10 16.09344 0 0
4:15 pm 16:15 Sunny 83 28.2 64 17.5 52 52 ENE 3 6 29.59 1002 10 16.09344 0 0
4:35 pm 16:35 Sunny 83 28.2 64 17.6 53 53 ENE 5 7 29.59 1002 10 16.09344 0 0
4:55 pm 16:55 Sunny 83 28.1 63 17.2 52 52 Calm 29.59 1002 10 16.09344 0 0
5:15 pm 17:15 Partly Cloudy 83 28.2 63 17.3 52 52 ENE 6 9 29.59 1002 10 16.09344 0 0
5:35 pm 17:35 Sunny 83 28.5 64 17.9 53 53 NE 8 13 29.59 1002 10 16.09344 0 0
5:55 pm 17:55 Sunny 83 28.2 64 17.6 53 53 ENE 7 11 29.59 1002 10 16.09344 0 0
6:15 pm 18:15 Sunny 83 28.1 64 17.9 54 54 NE 7 11 29.56 1001 10 16.09344 0 0
6:35 pm 18:35 Sunny 82 28 64 18 55 55 E 9 15 29.56 1001 10 16.09344 0 0
6:55 pm 18:55 Sunny 82 27.7 65 18.5 57 57 ENE 12 19 29.59 1002 10 16.09344 0 0
7:15 pm 19:15 Sunny 82 27.5 66 19 60 60 ENE 9 15 29.59 1002 10 16.09344 0 0
7:35 pm 19:35 Sunny 81 27 67 19.2 62 62 E 13 20 29.56 1001 10 16.09344 0 0
7:55 pm 19:55 Sunny 79 26.3 67 19.2 65 65 E 10 17 29.56 1001 10 16.09344 0 0
8:15 pm 20:15 Sunny 78 25.5 68 19.8 71 71 ENE 9 15 29.56 1001 10 16.09344 0 0
8:35 pm 20:35 Sunny 76 24.6 68 20 76 76 ENE 10 17 29.56 1001 10 16.09344 0 0
8:55 pm 20:55 Sunny 76 24.2 68 20 77 77 E 8 13 29.59 1002 10 16.09344 0 0
9:15 pm 21:15 Clear 74 23.2 68 20 82 82 ENE 8 13 29.62 1003 10 16.09344 0 0
9:35 pm 21:35 Clear 73 22.8 68 20 84 84 ENE 9 15 29.62 1003 10 16.09344 0 0
9:55 pm 21:55 Clear 73 23 68 20 83 83 ENE 12 19 29.62 1003 10 16.09344 0 0
10:15 pm 22:15 Clear 73 22.5 68 20 86 86 ENE 8 13 29.62 1003 10 16.09344 0 0
10:35 pm 22:35 Clear 73 22.5 68 20 86 86 NE 9 15 29.59 1002 10 16.09344 0 0
10:55 pm 22:55 Mostly Cloudy 72 22.2 68 20 87 87 NE 10 17 29.59 1002 10 16.09344 0 0
11:15 pm 23:15 Cloudy with Thunderstorms 73 22.5 68 20 86 86 NE 10 17 29.59 1002 10 16.09344 0 0
11:35 pm 23:35 Cloudy with Thunderstorms 73 22.5 68 20 86 86 NE 13 20 29.59 1002 10 16.09344 0 0
11:55 pm 23:55 Cloudy with Thunderstorms 72 22.3 68 19.8 86 86 NE 13 20 29.56 1001 10 16.09344 0 0

Powered by AerisWeather